Weather History for Pierre, SD

Change the Weather History Date:

Friday, June 21, 2013

  Actual Average Record
Temperature  
Mean Temperature 69 °F 70 °F  
Max Temperature 74 °F 82 °F 108 °F (1988)
Min Temperature 64 °F 57 °F 43 °F (1972)
Degree Days  
Heating Degree Days 0 1  
Month to date heating degree days 60 47  
Since 1 June heating degree days 60 47  
Since 1 July heating degree days 7678 7284  
Cooling Degree Days 4 6  
Month to date cooling degree days 54 71  
Year to date cooling degree days 76 103  
Since 1 June cooling degree days 54 71  
Growing Degree Days 18 (Base 50)    
Moisture  
Dew Point 64 °F    
Average Humidity 85    
Maximum Humidity 100    
Minimum Humidity 70    
Precipitation  
Precipitation 0.66 in 0.12 in 2.19 in (2002)
Month to date precipitation 2.56 2.66  
Year to date precipitation 11.42 9.86  
Sea Level Pressure  
Sea Level Pressure 29.80 in    
Wind  
Wind Speed 10 mph (NE)    
Max Wind Speed 33 mph    
Max Gust Speed 43 mph    
Visibility 8 miles    
Events Rain , Thunderstorm    
T = Trace of Precipitation, MM = Missing Value Source: NWS Daily Summary

Daily Weather History Graph

Daily Weather History Graph

Search for Another Location

Airport:

Trip Planner

Search our weather history database for the weather conditions in past years. The results will help you decide how hot, cold, wet, or windy it might be!

Date:

Astronomy

Jun. 21, 2013 Rise Set
Actual Time 5:56 AM CDT 9:29 PM CDT
Civil Twilight 5:20 AM CDT 10:05 PM CDT
Nautical Twilight 4:31 AM CDT 10:54 PM CDT
Astronomical Twilight 3:28 AM CDT 11:57 PM CDT
Moon 7:39 PM CDT (6/21) 4:17 AM CDT (6/21)
Length of Visible Light 16h 45m
Length of Day
15h 32m
Waxing Gibbous, 95% of the Moon is Illuminated
Jun 21
Waxing Gibbous
Jun 23
Full
Jun 29
Last Quarter
Jul 8
New
Jul 15
First Quarter

Hourly Weather History & Observations

Time (CDT) Temp. Dew Point Humidity Pressure Visibility Wind Dir Wind Speed Gust Speed Precip Events Conditions
12:53 AM 69.1 °F 66.9 °F 93% 29.75 in 6.0 mi NNE 4.6 mph - N/A   Scattered Clouds
1:53 AM 68.0 °F 66.9 °F 96% 29.74 in 8.0 mi Calm Calm - N/A   Clear
2:53 AM 68.0 °F 66.9 °F 96% 29.73 in 5.0 mi NE 3.5 mph - N/A   Mostly Cloudy
3:53 AM 66.9 °F 66.0 °F 97% 29.75 in 5.0 mi NNE 5.8 mph - N/A   Scattered Clouds
4:53 AM 66.9 °F 66.0 °F 97% 29.75 in 5.0 mi NE 17.3 mph - N/A   Clear
5:39 AM 64.4 °F 64.4 °F 100% 29.79 in 7.0 mi ENE 12.7 mph 20.7 mph N/A   Partly Cloudy
5:53 AM 64.9 °F 64.0 °F 97% 29.77 in 6.0 mi East 6.9 mph - N/A   Mostly Cloudy
6:06 AM 66.2 °F 64.4 °F 94% 29.81 in 6.0 mi East 8.1 mph 16.1 mph N/A   Overcast
6:53 AM 66.9 °F 64.9 °F 93% 29.77 in 5.0 mi East 8.1 mph - N/A   Overcast
7:24 AM 66.2 °F 66.2 °F 100% 29.82 in 6.0 mi East 9.2 mph - N/A   Overcast
7:50 AM 68.0 °F 66.2 °F 94% 29.81 in 8.0 mi East 8.1 mph - N/A   Scattered Clouds
7:53 AM 68.0 °F 66.0 °F 93% 29.78 in 8.0 mi East 9.2 mph - N/A   Partly Cloudy
8:53 AM 70.0 °F 66.0 °F 87% 29.76 in 10.0 mi East 9.2 mph - N/A   Clear
9:50 AM 71.6 °F 66.2 °F 83% 29.79 in 10.0 mi NNE 4.6 mph - N/A Thunderstorm Partly Cloudy
9:53 AM 70.0 °F 66.0 °F 87% 29.78 in 10.0 mi Calm Calm - N/A Thunderstorm Partly Cloudy
10:14 AM 69.8 °F 66.2 °F 88% 29.81 in 2.5 mi Calm Calm - 0.06 in Rain , Thunderstorm Thunderstorms and Rain
10:23 AM 69.8 °F 66.2 °F 88% 29.83 in 1.8 mi Calm Calm - 0.10 in Rain , Thunderstorm Light Thunderstorms and Rain
10:26 AM 69.8 °F 66.2 °F 88% 29.84 in 3.0 mi Calm Calm - 0.10 in Rain , Thunderstorm Light Thunderstorms and Rain
10:53 AM 69.1 °F 66.0 °F 90% 29.80 in 10.0 mi NNW 6.9 mph - 0.21 in Rain , Thunderstorm Light Thunderstorms and Rain
11:41 AM 68.0 °F 64.4 °F 88% 29.87 in 10.0 mi NNW 17.3 mph 23.0 mph 0.03 in Thunderstorm Thunderstorm
11:53 AM 68.0 °F 64.0 °F 87% 29.77 in 10.0 mi North 26.5 mph 38.0 mph 0.03 in Thunderstorm Thunderstorm
12:18 PM 68.0 °F 64.4 °F 88% 29.82 in 10.0 mi North 21.9 mph 29.9 mph 0.00 in Rain , Thunderstorm Light Thunderstorms and Rain
12:50 PM 66.2 °F 64.4 °F 94% 29.92 in 1.8 mi NW 20.7 mph 35.7 mph 0.32 in Rain , Thunderstorm Heavy Thunderstorms and Rain
12:53 PM 66.9 °F 64.9 °F 93% 29.89 in 1.8 mi NNW 18.4 mph 33.4 mph 0.36 in Rain , Thunderstorm Heavy Thunderstorms and Rain
12:59 PM 66.2 °F 64.4 °F 94% 29.86 in 3.0 mi NNW 23.0 mph - 0.04 in Rain , Thunderstorm Heavy Thunderstorms and Rain
1:08 PM 66.2 °F 64.4 °F 94% 29.81 in 6.0 mi North 27.6 mph 34.5 mph 0.06 in Rain , Thunderstorm Light Thunderstorms and Rain
1:40 PM 68.0 °F 60.8 °F 78% 29.73 in 10.0 mi ENE 20.7 mph 26.5 mph 0.06 in Thunderstorm Thunderstorm
1:53 PM 68.0 °F 60.1 °F 76% 29.66 in 10.0 mi ENE 24.2 mph 28.8 mph 0.06 in Thunderstorm Partly Cloudy
2:15 PM 68.0 °F 59.0 °F 73% 29.68 in 10.0 mi ENE 12.7 mph 24.2 mph N/A   Clear
2:53 PM 68.0 °F 59.0 °F 73% 29.72 in 10.0 mi East 13.8 mph 21.9 mph N/A   Clear
3:53 PM 70.0 °F 59.0 °F 68% 29.75 in 10.0 mi East 16.1 mph 25.3 mph N/A   Partly Cloudy
4:53 PM 73.9 °F 60.1 °F 62% 29.81 in 10.0 mi North 10.4 mph - N/A Thunderstorm Scattered Clouds
5:12 PM 73.4 °F 60.8 °F 65% 29.84 in 10.0 mi NE 9.2 mph - N/A   Mostly Cloudy
5:53 PM 73.0 °F 60.1 °F 64% 29.83 in 10.0 mi East 11.5 mph - N/A   Overcast
6:53 PM 70.0 °F 61.0 °F 73% 29.84 in 10.0 mi East 8.1 mph - N/A   Overcast
7:53 PM 70.0 °F 62.1 °F 76% 29.84 in 10.0 mi East 3.5 mph - N/A   Clear
8:53 PM 68.0 °F 62.1 °F 81% 29.84 in 10.0 mi Calm Calm - N/A   Clear
9:53 PM 66.9 °F 62.1 °F 84% 29.87 in 10.0 mi Calm Calm - N/A   Clear
10:53 PM 68.0 °F 61.0 °F 78% 29.93 in 10.0 mi WSW 12.7 mph - N/A   Mostly Cloudy
11:29 PM 66.2 °F 59.0 °F 78% 29.84 in 10.0 mi North 18.4 mph 24.2 mph 0.00 in Rain Light Rain
11:53 PM 66.9 °F 59.0 °F 76% 29.84 in 10.0 mi ENE 6.9 mph - 0.00 in   Clear